Weather History for KHLR - April, 2014

Change the Weather History Date:

Monday, April 14, 2014

  Actual Average Record
Temperature  
Mean Temperature 60 °F -  
Max Temperature 73 °F 76 °F 91 °F (1998)
Min Temperature 48 °F 58 °F 43 °F (2008)
Degree Days  
Heating Degree Days 4    
Growing Degree Days 10 (Base 50)    
Moisture  
Dew Point 45 °F    
Average Humidity 64    
Maximum Humidity 88    
Minimum Humidity 37    
Precipitation  
Precipitation 0.07 in - - ()
Sea Level Pressure  
Sea Level Pressure 30.00 in    
Wind  
Wind Speed 16 mph (NW)    
Max Wind Speed 26 mph    
Max Gust Speed 34 mph    
Visibility 10 miles    
Events Thunderstorm    
Averages and records for this station are not official NWS values.
T = Trace of Precipitation, MM = Missing Value Source: NWS Daily Summary

Daily Weather History Graph

Daily Weather History Graph

Search for Another Location

Airport or City:

Trip Planner

Search our weather history database for the weather conditions in past years. The results will help you decide how hot, cold, wet, or windy it might be!

Date:

Astronomy

Apr. 14, 2014 Rise Set
Actual Time 7:04 AM CDT 7:58 PM CDT
Civil Twilight 6:39 AM CDT 8:23 PM CDT
Nautical Twilight 6:09 AM CDT 8:52 PM CDT
Astronomical Twilight 5:39 AM CDT 9:23 PM CDT
Moon 7:39 PM CDT (4/14) 6:34 AM CDT (4/14)
Length of Visible Light 13h 44m
Length of Day
12h 54m
Full, 100% of the Moon is Illuminated
Apr 14
Full
Apr 15
Full
Apr 22
Last Quarter
Apr 29
New
May 6
First Quarter

Hourly Weather History & Observations

Time (CDT) Temp. Dew Point Humidity Pressure Visibility Wind Dir Wind Speed Gust Speed Precip Events Conditions
12:47 AM 71.6 °F 66.2 °F 83% 29.70 in 10.0 mi SE 9.2 mph - N/A   Overcast
12:56 AM 72.0 °F 68.0 °F 87% 29.77 in 10.0 mi SE 10.4 mph - N/A   Overcast
1:56 AM 73.0 °F 69.1 °F 87% 29.76 in 10.0 mi SSE 10.4 mph - N/A   Overcast
2:56 AM 73.9 °F 69.1 °F 85% 29.75 in 10.0 mi SSE 9.2 mph - N/A   Overcast
3:26 AM 73.4 °F 69.8 °F 88% 29.68 in 10.0 mi South 10.4 mph - N/A   Overcast
3:56 AM 73.9 °F 69.1 °F 85% 29.78 in 10.0 mi Variable 6.9 mph - N/A   Overcast
4:04 AM 71.6 °F 66.2 °F 83% 29.72 in 10.0 mi WNW 20.7 mph 26.5 mph N/A   Overcast
4:18 AM 64.4 °F 59.0 °F 83% 29.75 in 9.0 mi NNW 26.5 mph 33.4 mph 0.01 in   Overcast
4:30 AM 60.8 °F 55.4 °F 82% 29.77 in 7.0 mi NNW 21.9 mph 33.4 mph 0.02 in   Overcast
4:40 AM 57.2 °F 53.6 °F 88% 29.78 in 9.0 mi NNW 21.9 mph 33.4 mph 0.03 in   Overcast
4:56 AM 55.9 °F 51.1 °F 84% 29.85 in 10.0 mi NNW 21.9 mph 31.1 mph 0.06 in Thunderstorm Thunderstorm
5:47 AM 55.4 °F 46.4 °F 72% 29.83 in 10.0 mi NNW 19.6 mph 28.8 mph 0.01 in   Overcast
5:56 AM 54.0 °F 46.0 °F 75% 29.91 in 10.0 mi NNW 18.4 mph 26.5 mph 0.01 in   Overcast
6:56 AM 52.0 °F 41.0 °F 66% 29.96 in 10.0 mi NNW 20.7 mph 33.4 mph N/A   Overcast
7:56 AM 50.0 °F 37.0 °F 61% 30.03 in 10.0 mi NW 21.9 mph 28.8 mph N/A   Overcast
8:56 AM 48.0 °F 36.0 °F 63% 30.06 in 10.0 mi NNW 26.5 mph 34.5 mph N/A   Overcast
9:32 AM 48.2 °F 37.4 °F 66% 30.01 in 10.0 mi NW 16.1 mph 23.0 mph N/A Thunderstorm Thunderstorm
9:56 AM 48.0 °F 36.0 °F 63% 30.11 in 10.0 mi NW 17.3 mph 31.1 mph N/A Thunderstorm Thunderstorm
10:13 AM 48.2 °F 35.6 °F 62% 30.01 in 10.0 mi NW 17.3 mph 26.5 mph N/A   Overcast
10:56 AM 48.0 °F 37.0 °F 66% 30.14 in 10.0 mi NNW 20.7 mph 32.2 mph N/A   Overcast
11:28 AM 48.2 °F 37.4 °F 66% 30.07 in 10.0 mi NW 18.4 mph 27.6 mph N/A   Overcast
11:56 AM 52.0 °F 37.0 °F 57% 30.17 in 10.0 mi NNW 18.4 mph 27.6 mph N/A   Overcast
12:05 PM 53.6 °F 35.6 °F 51% 30.08 in 10.0 mi NNW 20.7 mph 31.1 mph N/A   Overcast
12:56 PM 55.9 °F 36.0 °F 47% 30.16 in 10.0 mi NNW 20.7 mph 32.2 mph N/A   Overcast
1:56 PM 57.9 °F 35.1 °F 42% 30.16 in 10.0 mi NW 23.0 mph 34.5 mph N/A   Mostly Cloudy
2:56 PM 59.0 °F 35.1 °F 41% 30.14 in 10.0 mi NW 23.0 mph 31.1 mph N/A   Clear
3:56 PM 59.0 °F 34.0 °F 39% 30.14 in 10.0 mi NW 24.2 mph 34.5 mph N/A   Clear
4:56 PM 57.9 °F 33.1 °F 39% 30.16 in 10.0 mi NW 24.2 mph 33.4 mph N/A   Clear
5:56 PM 57.9 °F 32.0 °F 37% 30.18 in 10.0 mi NNW 19.6 mph 31.1 mph N/A   Clear
6:56 PM 55.9 °F 30.9 °F 39% 30.20 in 10.0 mi NNW 17.3 mph 28.8 mph N/A   Partly Cloudy
7:56 PM 53.1 °F 32.0 °F 45% 30.24 in 10.0 mi NNW 9.2 mph - N/A   Clear
8:56 PM 52.0 °F 30.9 °F 45% 30.28 in 10.0 mi NNW 11.5 mph - N/A   Clear
9:56 PM 50.0 °F 30.0 °F 46% 30.32 in 10.0 mi NNW 9.2 mph - N/A   Clear
11:56 PM 48.0 °F 30.0 °F 50% 30.35 in 10.0 mi NNW 11.5 mph - N/A   Clear